Regional Weather Roundup
Issued by NWS

Home | Current Version | Previous Version | Text Only | Print | Product List | Glossary On
Versions: 1 2 3 4 5 6 7 8 9 10 11 12 13 14 15 16 17 18 19 20 21 22 23 24 25 26 27 28 29 30 31 32 33 34 35 36 37 38 39 40 41 42 43 44 45 46 47 48 49 50
000
ASUS43 KMKX 292200
RWRWI

WISCONSIN REGIONAL WEATHER ROUNDUP
NATIONAL WEATHER SERVICE MILWAUKEE/SULLIVAN WI
500 PM CDT FRI AUG 29 2014

NOTE: "FAIR" INDICATES FEW OR NO CLOUDS BELOW 12,000 FEET WITH NO
SIGNIFICANT WEATHER AND/OR OBSTRUCTIONS TO VISIBILITY.

WIZ001-002-006>008-014>016-023>028-292300-
NORTHWEST WISCONSIN

CITY           SKY/WX    TMP DP  RH WIND       PRES   REMARKS
SUPERIOR ARPT  CLOUDY    62  62  97 NE7       29.74S
ASHLAND        CLOUDY    69  66  90 S3        29.76R
HAYWARD        LGT RAIN  68  67  96 CALM      29.75F
SIREN          RAIN      69  67  93 CALM      29.74R
RICE LAKE      CLOUDY    67  65  93 SE7       29.78S
LADYSMITH      CLOUDY    69  64  83 NW10      29.84R
EAU CLAIRE     NOT AVBL
MENOMONIE      CLOUDY    73  69  88 CALM      29.75S
NEW RICHMOND   PTSUNNY   74  67  77 CALM      29.75F
OSCEOLA        PTSUNNY   72  70  95 S3        29.75F
$$

WIZ003>005-009-010-017-018-292300-
NORTH CENTRAL WISCONSIN

CITY           SKY/WX    TMP DP  RH WIND       PRES   REMARKS
WOODRUFF       CLOUDY    72  67  84 S8        29.82S
RHINELANDER    CLOUDY    70  65  84 S6        29.85R
EAGLE RIVER    PTSUNNY   70  64  81 SW6       29.83S
LAND O LAKES   CLOUDY    71  65  79 S7        29.84R
PHILLIPS       CLOUDY    72  67  86 CALM      29.80S
TOMAHAWK       CLOUDY    71  66  84 CALM      29.83S HAZE
MEDFORD        CLOUDY    75  69  82 SE7       29.81S
MERRILL        PTSUNNY   76  70  81 S6        29.81F
$$

WIZ029-030-035-036-043>047-292300-
CENTRAL WISCONSIN

CITY           SKY/WX    TMP DP  RH WIND       PRES   REMARKS
WAUSAU         MOSUNNY   79  70  74 S9        29.79F HX  82
MOSINEE        MOSUNNY   79  72  78 SE8       29.82F HX  82
MARSHFIELD     SUNNY     81  71  71 S9        29.79F HX  85
STEVENS POINT  MOSUNNY   81  69  66 S9        29.80F HX  84
WAUPACA        MOSUNNY   85  71  62 S7        29.80F HX  91
WAUTOMA        NOT AVBL
WISC RAPIDS    MOSUNNY   84  70  62 SW8       29.80F HX  88
CAMP DOUGLAS   NOT AVBL
$$

WIZ011>013-019>022-031-037>040-048>050-292300-
NORTHEAST WISCONSIN

CITY           SKY/WX    TMP DP  RH WIND       PRES   REMARKS
ANTIGO         CLOUDY    72  68  87 SE7       29.84F
STURGEON BAY   PTSUNNY   70  66  88 S22       29.84F
GREEN BAY      SUNNY     83  72  69 S13       29.81F HX  88
MANITOWOC      NOT AVBL
APPLETON       PTSUNNY   84  70  61 SW12      29.82F HX  88
CLINTONVILLE   MOSUNNY   84  70  61 S8        29.80F HX  88
OSHKOSH        PTSUNNY   84  70  62 S20G25    29.81F HX  88
$$

WIZ032>034-041-042-053>061-292300-
SOUTHWEST WISCONSIN

CITY           SKY/WX    TMP DP  RH WIND       PRES   REMARKS
LA CROSSE      MOSUNNY   88  72  58 S14       29.73F HX  94
SPARTA         PTSUNNY   85  68  57 S9        29.77F HX  88
VIROQUA        MOCLDY    83  70  62 S10G16    29.79F HX  87
BOSCOBEL       MOSUNNY   88  69  53 S12G21    29.78S HX  92
PRAIRIE DU CHI MOSUNNY   86  67  52 S9        29.77R HX  89
PLATTEVILLE    FAIR      85  72  65 S15       29.83S HX  90
$$

WIZ056-057-062-063-064-067-068-292300-
SOUTH CENTRAL WISCONSIN

CITY           SKY/WX    TMP DP  RH WIND       PRES   REMARKS
BARABOO/DELLS  SUNNY     85  68  55 S16       29.80F HX  88
LONE ROCK      NOT AVBL
WATERTOWN      MOSUNNY   82  72  72 S9        29.84F HX  86
MADISON        PTSUNNY   84  69  60 S14       29.83S HX  88
MIDDLETON      FAIR      87  68  54 S9        29.83S HX  90
MONROE         SUNNY     82  72  69 S13G21    29.85S HX  87
JANESVILLE     SUNNY     86  70  58 S14       29.84F HX  90
$$

WIZ051-052-058>065-066-070>072-292300-
SOUTHEAST WISCONSIN

CITY           SKY/WX    TMP DP  RH WIND       PRES   REMARKS
MILWAUKEE      CLOUDY    78  71  79 S16       29.87F HX  80
WAUKESHA       PTSUNNY   79  72  78 SE12G17   29.87F HX  82
MILWAUKEE/TIMM NOT AVBL
RACINE         PTSUNNY   76  70  82 S15       29.89F
BURLINGTON     PTSUNNY   82  71  69 SE8       29.86F HX  85
KENOSHA        PTSUNNY   81  73  76 SE13      29.88F HX  86
FOND DU LAC    MOSUNNY   83  71  67 S15       29.83S HX  87
SHEBOYGAN      MOSUNNY   73  68  84 S13G21    29.86S
WEST BEND      MOSUNNY   79  70  73 S6        29.85F HX  81
JUNEAU         SUNNY     82  70  68 SE14      29.86S HX  85
$$

LSZ147-162-292300-
LAKE SUPERIOR

STATION/POSITION TIME  TEMP    WIND        PRES    WAVE
                       AIR SEA DIR/SP/G            HT/PER
                 (UTC) (F)     (DEG/KT/KT) (MB)    (FT/S)
W MID LAKE BUOY  2050   59 57   90/  6/  8 1007.6F   1
DEVILS ISLAND    2100   62     100/  3/  3 1007.8F
PORT WING        2100   63      30/  9/ 10 1007.5F
SAXON HARBOR     2100   69     190/  2/  5 1007.8F
$$

LMZ867-665-643>646-292300-
LAKE MICHIGAN

STATION/POSITION TIME  TEMP    WIND        PRES    WAVE
                       AIR SEA DIR/SP/G            HT/PER
                 (UTC) (F)     (DEG/KT/KT) (MB)    (FT/S)
N MID LAKE BUOY  2050   67 65  210/ 10/ 10 1011.5F   4/ 5
NORTHPORT PIER   2100   68     170/ 12/ 18 1010.8F
SISTER BAY       2141   69     190/ 21/ 26   N/A
KEWAUNEE LAKESHO 2100   66     170/ 17/ 20 1010.4F
SHEBOYGAN LAKESH 2100   68 70  180/ 15/ 16 1011.3F
ATWATER BUOY     2100   71     150/ 17/ 19 1012.4F
MILWAUKEE LAKESH 2115   72     150/ 16/ 17   N/A
S MID LAKE BUOY  2050   71 69  150/ 16/ 17 1012.6F   3/ 5
KENOSHA   LAKESH 2100   74     170/ 12/ 16 1011.5F
$$

TC  - TEMPERATURE IN CELSIUS
VSB - VISIBILITY IN STATUTE MILES
WCI - WIND CHILL INDEX
HX  - HEAT INDEX



USA.gov is the U.S. government's official web portal to all federal, state and local government web resources and services.